Vorticity
3 4 4 3 4 7 9 11 10 10 5 7 5 7 4 3 7 -1 8 12 13 22 33 35 28 26 28 25 16 11 1 17 3 23 28 27 19 10 26 22 17 9 13 5 12
2 6 6 4 7 8 10 8 10 5 4 8 7 1 4 5 1 9 12 15 21 35 32 26 18 18 25 18 17 13 11 4 27 6 -7 30 4 34 4 32 7 16 16 2 15
3 5 6 5 7 6 6 8 8 6 3 7 5 2 1 1 7 6 16 21 33 31 25 17 18 20 22 15 20 14 14 17 15 25 44 10 22 34 20 17 12 9 18 4 8
5 5 5 6 7 7 5 10 8 4 9 7 2 0 1 -1 8 14 25 28 33 20 16 20 22 21 21 16 18 16 20 13 12 20 -22 32 18 27 14 18 14 8 11 12 4
4 6 5 9 6 5 7 10 4 6 8 0 4 3 6 7 9 21 28 31 18 14 12 16 20 23 21 20 14 13 24 11 13 12 23 -6 23 25 -10 24 10 12 7 14 8
7 1 5 10 6 7 8 7 -1 13 5 5 3 5 3 4 8 29 29 25 13 15 13 19 22 24 20 13 13 6 25 10 7 17 7 3 15 13 -8 6 10 14 11 9 10
0 7 6 9 7 7 6 4 10 12 3 2 4 5 8 3 16 28 32 15 13 15 11 18 23 24 19 12 13 9 21 8 12 25 16 14 16 16 -16 32 59 5 18 7 9
9 8 7 11 6 6 1 9 8 7 -1 3 3 5 6 1 17 32 26 11 12 11 15 18 25 25 20 4 7 20 16 10 19 17 14 19 27 -2 -17 5 21 5 23 8 18
9 6 9 8 6 3 7 10 1 3 3 5 3 5 1 7 18 29 25 10 13 11 11 18 23 25 22 7 7 18 8 13 23 12 2 16 15 -12 20 47 45 -5 17 9 11
9 9 6 8 7 7 6 2 9 7 7 6 3 6 -4 9 20 33 18 9 15 10 9 17 19 25 25 12 9 18 7 10 20 18 13 11 0 11 21 52 31 8 13 10 8
8 8 5 8 5 8 2 12 6 10 7 8 4 3 6 7 17 23 20 7 14 12 11 13 23 28 23 13 8 15 5 13 -11 18 11 3 17 10 24 34 23 -6 10 17 6
6 9 11 10 6 5 1 12 7 6 3 6 3 1 7 10 19 23 21 10 10 12 11 11 12 31 20 18 7 13 6 14 17 11 10 4 12 8 14 25 8 40 17 -3 8
11 8 10 7 5 2 5 12 8 8 6 2 3 4 8 16 5 23 23 10 8 11 13 12 13 21 28 18 10 15 8 8 32 8 15 4 11 14 10 -15 37 12 11 5 7
8 11 9 4 6 11 6 10 7 8 6 5 1 -1 6 13 11 25 17 8 8 12 15 13 7 12 33 21 15 13 6 9 20 7 11 3 12 -2 31 -22 6 54 -14 17 14
0 18 9 3 15 3 9 11 6 9 11 5 1 -3 4 23 10 13 19 10 11 16 14 5 10 4 35 27 18 14 7 8 22 11 6 14 7 24 25 -22 19 2 50 -2 18
-10 15 11 6 13 -2 6 10 8 5 3 2 3 4 2 5 14 22 17 13 13 17 13 10 10 5 15 31 19 11 12 8 15 15 9 8 4 9 21 -9 7 57 -5 -1 27
6 15 7 8 4 3 5 6 14 10 4 2 2 1 1 8 21 19 23 15 13 28 10 9 11 14 13 37 20 11 15 10 13 14 10 8 12 30 27 -27 -16 20 42 -4 10
20 10 4 14 3 1 4 8 9 10 6 4 2 4 2 2 9 12 22 15 13 18 23 7 10 -3 7 47 7 3 9 13 8 14 15 11 10 26 25 1 -3 22 19 28 5
19 5 4 13 8 -0 8 10 10 12 6 7 5 1 5 2 14 22 23 17 16 20 28 7 3 7 16 39 4 10 7 13 8 9 15 15 9 7 32 10 -2 19 13 20 25
12 5 9 5 8 7 8 5 12 12 4 6 5 0 4 5 18 19 28 21 13 29 27 7 5 -6 11 19 36 8 1 14 14 9 6 15 14 15 8 20 9 8 27 26 26
14 9 8 6 5 5 5 8 12 10 7 6 5 2 4 4 14 17 17 12 15 25 33 7 9 7 7 24 42 15 21 17 9 13 8 8 14 10 13 19 2 12 9 17 29
10 3 10 -3 -2 12 9 6 9 10 10 7 7 3 7 6 13 19 20 17 14 25 40 8 5 8 1 5 46 6 10 8 15 12 12 -4 15 10 10 14 6 10 12 10 20
4 8 7 10 5 5 7 10 9 10 7 6 8 3 7 6 16 24 16 19 14 27 30 11 5 3 4 6 22 38 -12 8 16 18 12 -6 19 11 8 9 9 4 13 11 13
10 3 6 18 6 9 11 11 9 7 6 8 8 3 9 9 12 12 18 14 15 25 31 17 5 8 3 9 10 51 -4 12 14 13 27 0 3 11 13 11 13 12 10 17 11
2 1 8 4 11 13 9 9 8 7 8 8 10 4 9 9 10 16 18 16 15 21 34 23 3 3 8 3 12 26 21 -4 15 7 16 18 -1 11 -2 2 4 6 9 5 27
13 5 13 12 14 7 4 2 10 15 8 8 9 8 8 9 12 16 18 16 12 22 32 27 4 7 11 5 10 16 31 2 -7 -8 12 19 13 -2 10 9 1 7 9 10 15
4 12 6 4 9 -0 6 13 9 10 8 9 8 11 9 8 14 14 17 13 14 20 31 29 4 8 0 7 17 13 61 11 1 2 10 15 12 12 1 -2 4 9 5 8 9
Height
5821 5817 5813 5808 5803 5798 5791 5785 5778 5770 5764 5758 5750 5741 5732 5717 5705 5687 5668 5650 5627 5601 5588 5578 5573 5570 5570 5571 5572 5577 5578 5584 5594 5601 5612 5621 5627 5643 5656 5668 5677 5690 5706 5721 5733
5818 5813 5808 5804 5798 5792 5785 5778 5771 5765 5757 5749 5741 5733 5720 5706 5689 5671 5652 5629 5607 5589 5576 5567 5563 5562 5561 5562 5563 5564 5567 5578 5587 5593 5602 5608 5617 5632 5645 5656 5670 5683 5696 5711 5724
5814 5808 5803 5798 5792 5785 5778 5772 5765 5759 5751 5743 5733 5722 5708 5693 5674 5656 5634 5610 5593 5580 5570 5562 5556 5554 5552 5553 5555 5556 5563 5572 5579 5587 5594 5601 5610 5623 5637 5648 5661 5674 5687 5703 5717
5810 5803 5798 5792 5785 5779 5773 5766 5759 5752 5744 5734 5724 5711 5696 5680 5661 5638 5614 5594 5582 5572 5564 5556 5549 5546 5545 5546 5547 5551 5558 5563 5571 5576 5581 5594 5604 5618 5629 5640 5652 5664 5678 5695 5709
5805 5800 5794 5787 5780 5775 5767 5760 5753 5746 5737 5727 5715 5700 5685 5668 5649 5625 5603 5586 5576 5567 5558 5549 5543 5541 5540 5542 5544 5548 5553 5559 5565 5570 5576 5586 5596 5610 5621 5634 5644 5657 5670 5687 5702
5802 5796 5790 5782 5774 5768 5761 5754 5747 5739 5730 5720 5706 5690 5674 5656 5636 5614 5597 5584 5573 5563 5554 5546 5540 5537 5538 5539 5542 5546 5549 5556 5562 5567 5572 5583 5592 5601 5615 5623 5639 5652 5666 5680 5694
5799 5791 5785 5777 5769 5763 5756 5749 5741 5732 5724 5712 5696 5681 5664 5649 5627 5605 5591 5582 5573 5563 5553 5544 5537 5535 5536 5538 5541 5544 5548 5554 5560 5565 5572 5580 5588 5598 5608 5619 5630 5646 5660 5674 5688
5793 5787 5781 5773 5766 5759 5752 5744 5735 5726 5717 5703 5689 5674 5659 5642 5625 5607 5588 5577 5570 5560 5551 5542 5536 5534 5535 5536 5539 5543 5548 5553 5556 5561 5569 5578 5589 5597 5606 5614 5628 5640 5653 5667 5681
5789 5782 5776 5769 5761 5754 5746 5738 5730 5720 5709 5695 5681 5668 5652 5630 5612 5599 5591 5581 5570 5560 5551 5543 5536 5533 5534 5536 5540 5544 5548 5552 5555 5561 5567 5574 5584 5593 5602 5609 5623 5636 5651 5663 5678
5784 5777 5770 5764 5757 5748 5740 5731 5724 5714 5703 5690 5675 5660 5646 5637 5617 5601 5587 5580 5570 5560 5553 5544 5537 5533 5533 5536 5540 5544 5548 5551 5556 5563 5568 5574 5582 5591 5598 5608 5618 5633 5646 5659 5671
5779 5772 5764 5757 5751 5744 5736 5726 5718 5710 5697 5685 5671 5656 5640 5619 5608 5595 5587 5578 5569 5561 5553 5545 5539 5533 5533 5535 5539 5543 5547 5551 5555 5560 5567 5573 5580 5587 5596 5607 5617 5630 5641 5654 5665
5774 5767 5760 5753 5746 5739 5731 5722 5714 5704 5691 5678 5664 5648 5635 5624 5609 5595 5584 5578 5570 5562 5554 5547 5540 5535 5533 5535 5539 5543 5547 5551 5554 5559 5566 5573 5580 5586 5593 5607 5617 5626 5637 5650 5661
5770 5762 5754 5748 5741 5734 5726 5717 5708 5698 5688 5676 5664 5648 5637 5623 5608 5597 5588 5578 5568 5561 5554 5548 5542 5537 5535 5535 5539 5543 5547 5551 5554 5559 5565 5573 5580 5588 5593 5604 5614 5623 5635 5646 5657
5765 5757 5749 5743 5738 5729 5720 5711 5703 5693 5683 5671 5657 5647 5634 5616 5604 5593 5584 5579 5568 5561 5554 5549 5543 5540 5536 5536 5539 5543 5547 5551 5554 5559 5565 5573 5580 5584 5592 5601 5611 5621 5632 5643 5655
5759 5752 5744 5736 5730 5723 5716 5707 5696 5687 5677 5664 5653 5637 5623 5614 5601 5591 5585 5576 5567 5559 5555 5550 5545 5541 5537 5536 5539 5543 5547 5551 5554 5559 5565 5573 5583 5588 5591 5599 5608 5617 5629 5640 5653
5754 5746 5739 5732 5725 5718 5710 5701 5691 5684 5671 5661 5648 5637 5624 5610 5599 5588 5579 5575 5566 5558 5554 5550 5546 5543 5539 5536 5539 5543 5547 5551 5556 5561 5566 5572 5579 5586 5590 5600 5607 5615 5624 5637 5648
5748 5740 5734 5727 5719 5712 5705 5696 5688 5679 5670 5658 5646 5634 5622 5609 5598 5589 5582 5576 5565 5557 5552 5551 5547 5544 5541 5538 5540 5544 5546 5552 5558 5562 5568 5574 5579 5583 5592 5602 5610 5617 5624 5634 5643
5740 5734 5728 5721 5714 5707 5700 5692 5686 5675 5663 5652 5641 5629 5618 5610 5597 5587 5578 5570 5561 5555 5552 5550 5549 5546 5544 5541 5542 5544 5548 5552 5557 5563 5569 5575 5581 5585 5590 5599 5609 5614 5624 5628 5639
5735 5728 5722 5715 5708 5702 5697 5688 5680 5670 5661 5651 5640 5629 5615 5603 5594 5584 5576 5570 5561 5554 5551 5549 5548 5547 5545 5542 5543 5545 5550 5554 5559 5564 5570 5576 5582 5587 5590 5598 5609 5615 5622 5630 5639
5729 5723 5716 5709 5703 5698 5691 5683 5673 5664 5655 5645 5635 5627 5615 5604 5592 5583 5574 5567 5559 5552 5548 5548 5548 5547 5546 5544 5544 5546 5550 5555 5559 5565 5571 5577 5582 5588 5592 5600 5608 5614 5621 5631 5641
5724 5717 5710 5704 5698 5693 5685 5678 5670 5661 5652 5642 5631 5621 5611 5602 5590 5581 5574 5565 5557 5551 5547 5547 5548 5549 5547 5544 5543 5548 5550 5554 5559 5565 5571 5577 5584 5590 5595 5602 5608 5613 5620 5627 5635
5716 5711 5704 5699 5694 5687 5680 5672 5665 5655 5646 5636 5628 5618 5609 5599 5587 5579 5571 5562 5555 5549 5546 5546 5548 5547 5547 5545 5542 5547 5551 5554 5558 5564 5570 5577 5583 5588 5595 5602 5608 5614 5620 5625 5633
5710 5705 5699 5693 5688 5682 5674 5666 5657 5649 5640 5630 5622 5612 5605 5597 5587 5577 5567 5560 5553 5549 5544 5545 5547 5547 5547 5546 5545 5547 5552 5556 5559 5565 5570 5575 5582 5586 5593 5600 5608 5614 5619 5626 5632
5705 5699 5695 5688 5682 5676 5668 5661 5653 5644 5635 5626 5618 5609 5600 5592 5583 5575 5566 5558 5552 5547 5543 5543 5546 5547 5548 5548 5547 5547 5552 5557 5560 5565 5568 5572 5578 5586 5592 5598 5606 5613 5618 5624 5632
5699 5694 5687 5682 5676 5669 5662 5655 5647 5639 5630 5622 5615 5608 5598 5590 5581 5573 5565 5557 5551 5546 5542 5542 5545 5546 5547 5548 5547 5547 5551 5554 5560 5564 5567 5572 5578 5584 5591 5597 5603 5610 5616 5622 5630
5692 5688 5682 5676 5669 5663 5656 5649 5641 5632 5624 5616 5608 5602 5594 5588 5580 5570 5563 5556 5551 5544 5542 5541 5544 5545 5546 5547 5547 5548 5551 5555 5558 5564 5566 5571 5577 5582 5588 5594 5601 5607 5614 5621 5629
5685 5680 5674 5669 5663 5657 5651 5645 5636 5627 5619 5611 5603 5597 5590 5583 5576 5569 5562 5554 5548 5543 5540 5540 5542 5544 5545 5546 5547 5548 5550 5553 5558 5562 5565 5570 5575 5580 5587 5594 5601 5607 5613 5618 5626